2024/06/03 11:50:00,0.0,15.1
2024/06/03 12:00:00,0.0,14.9
2024/06/03 12:10:00,0.0,14.5
2024/06/03 12:20:00,0.0,14.8
2024/06/03 12:30:00,0.0,15.1
2024/06/03 12:40:00,0.0,15.4
2024/06/03 12:50:00,0.0,15.9
2024/06/03 13:00:00,0.0,15.5
2024/06/03 13:10:00,0.0,14.9
2024/06/03 13:20:00,0.0,15.2
2024/06/03 13:30:00,0.0,15.6
2024/06/03 13:40:00,0.0,16.1
2024/06/03 13:50:00,0.0,15.2
2024/06/03 14:00:00,0.0,15.1
2024/06/03 14:10:00,0.0,15.4
2024/06/03 14:20:00,0.0,15.3
2024/06/03 14:30:00,0.0,15.3
2024/06/03 14:40:00,0.0,15.0
2024/06/03 14:50:00,0.0,14.8
2024/06/03 15:00:00,0.0,14.8
2024/06/03 15:10:00,0.0,14.9
2024/06/03 15:20:00,0.0,15.1
2024/06/03 15:30:00,0.0,14.8
2024/06/03 15:40:00,0.0,14.5
2024/06/03 15:50:00,0.0,14.4
2024/06/03 16:00:00,0.0,14.3
2024/06/03 16:10:00,0.0,14.2
2024/06/03 16:20:00,0.0,13.9
2024/06/03 16:30:00,0.0,14.2
2024/06/03 16:40:00,0.0,14.3
2024/06/03 16:50:00,0.0,13.8
2024/06/03 17:00:00,0.0,13.3
2024/06/03 17:10:00,0.0,13.3
2024/06/03 17:20:00,0.0,13.5
2024/06/03 17:30:00,0.0,13.4
2024/06/03 17:40:00,0.0,13.3
2024/06/03 17:50:00,0.0,13.3
2024/06/03 18:00:00,0.0,13.0
2024/06/03 18:10:00,0.0,12.8
2024/06/03 18:20:00,0.0,12.5
2024/06/03 18:30:00,0.0,12.5
2024/06/03 18:40:00,0.0,12.5
2024/06/03 18:50:00,0.0,12.6
2024/06/03 19:00:00,0.0,12.6
2024/06/03 19:10:00,0.0,12.5
2024/06/03 19:20:00,0.0,12.4
2024/06/03 19:30:00,0.0,12.4
2024/06/03 19:40:00,0.0,12.4
2024/06/03 19:50:00,0.0,12.3
2024/06/03 20:00:00,0.0,12.2
2024/06/03 20:10:00,0.0,12.2
2024/06/03 20:20:00,0.0,12.1
2024/06/03 20:30:00,0.0,12.0
2024/06/03 20:40:00,0.0,12.0
2024/06/03 20:50:00,0.0,12.0
2024/06/03 21:00:00,0.0,11.9
2024/06/03 21:10:00,0.0,11.6
2024/06/03 21:20:00,0.0,11.5
2024/06/03 21:30:00,0.0,11.4
2024/06/03 21:40:00,0.0,11.4
2024/06/03 21:50:00,0.0,11.3
2024/06/03 22:00:00,0.0,11.3
2024/06/03 22:10:00,0.0,11.4
2024/06/03 22:20:00,0.0,11.4
2024/06/03 22:30:00,0.0,11.4
2024/06/03 22:40:00,0.0,11.4
2024/06/03 22:50:00,0.0,11.4
2024/06/03 23:00:00,0.0,11.4
2024/06/03 23:10:00,0.0,11.4
2024/06/03 23:20:00,0.0,11.4
2024/06/03 23:30:00,0.0,11.4
2024/06/03 23:40:00,0.0,11.4
2024/06/03 23:50:00,0.0,11.4
